Tri-Cities, TN

12:08 AM EDT on March 27, 2017 (GMT -0400)
Tri-Cities Regional Tennessee / Virginia

Weather History for KTRI - January, 2013

Change the Weather History Date:

Wednesday, January 16, 2013

  Actual Average Record
Temperature  
Mean Temperature 50 °F 35 °F  
Max Temperature 55 °F 45 °F 72 °F (1949)
Min Temperature 45 °F 25 °F -4 °F (1964)
Degree Days  
Heating Degree Days 15 30  
Month to date heating degree days 343 480  
Since 1 July heating degree days 2010 2209  
Cooling Degree Days 0 0  
Month to date cooling degree days 0 0  
Year to date cooling degree days 0 0  
Moisture  
Dew Point 48 °F    
Average Humidity 97    
Maximum Humidity 100    
Minimum Humidity 93    
Precipitation  
Precipitation 1.05 in 0.12 in 1.05 in (2013)
Month to date precipitation 6.21 1.71  
Year to date precipitation 6.21 1.71  
Snow  
Snow 0.00 in 0.20 in - ()
Month to date snowfall T 2.4  
Since 1 July snowfall 0.6 5.1  
Snow Depth 0.00 in    
Sea Level Pressure  
Sea Level Pressure 29.97 in    
Wind  
Wind Speed 4 mph (West)    
Max Wind Speed 15 mph    
Max Gust Speed 20 mph    
Visibility 7 miles    
Events Rain    
T = Trace of Precipitation, MM = Missing Value Source: NWS Daily Summary

Daily Weather History Graph

Daily Weather History Graph

Search for Another Location

Airport or City:

Trip Planner

Search our weather history database for the weather conditions in past years. The results will help you decide how hot, cold, wet, or windy it might be!

Date:

Astronomy

Jan. 16, 2013 Rise Set
Actual Time 7:40 AM EST 5:39 PM EST
Civil Twilight 7:12 AM EST 6:07 PM EST
Nautical Twilight 6:40 AM EST 6:38 PM EST
Astronomical Twilight 6:09 AM EST 7:09 PM EST
Moon 10:26 AM EST (1/16) 11:18 PM EST (1/16)
Length of Visible Light 10h 54m
Length of Day
9h 58m
Waxing Crescent, 28% of the Moon is Illuminated
Jan 16
Waxing Crescent
Jan 18
First Quarter
Jan 26
Full
Feb 3
Last Quarter
Feb 10
New

Hourly Weather History & Observations

Time (EST) Temp. Windchill Dew Point Humidity Pressure Visibility Wind Dir Wind Speed Gust Speed Precip Events Conditions
12:00 AM 48.0 °F - 46.9 °F 96% 29.98 in 3.0 mi West 4.6 mph - 0.01 in Rain Light Rain
12:08 AM 46.9 °F - 46.0 °F 97% 29.98 in 2.5 mi WNW 4.6 mph - 0.03 in Rain Heavy Rain
12:20 AM 48.0 °F - 46.9 °F 96% 29.99 in 3.0 mi Calm Calm - 0.05 in Rain Rain
12:53 AM 46.9 °F - 46.9 °F 100% 29.96 in 3.0 mi Calm Calm - 0.14 in Rain Rain
1:04 AM 48.0 °F - 46.9 °F 96% 29.98 in 7.0 mi SSE 4.6 mph - 0.00 in Rain Light Rain
1:13 AM 48.0 °F - 46.9 °F 96% 29.98 in 8.0 mi Calm Calm - 0.00 in Rain Light Rain
1:53 AM 48.0 °F - 46.9 °F 96% 29.94 in 4.0 mi Calm Calm - 0.02 in Rain Light Rain
2:53 AM 48.0 °F - 48.0 °F 100% 29.92 in 3.0 mi Calm Calm - 0.03 in Rain Rain
3:53 AM 48.9 °F - 48.0 °F 97% 29.91 in 7.0 mi East 3.5 mph - 0.08 in Rain Light Rain
4:24 AM 48.9 °F - 48.0 °F 97% 29.92 in 10.0 mi ENE 4.6 mph - 0.01 in   Overcast
4:53 AM 48.9 °F - 48.0 °F 97% 29.88 in 10.0 mi East 5.8 mph - 0.01 in   Overcast
5:53 AM 48.9 °F - 48.0 °F 97% 29.87 in 10.0 mi Calm Calm - N/A   Overcast
6:10 AM 48.9 °F - 48.0 °F 97% 29.92 in 4.0 mi NW 10.4 mph - 0.02 in Rain Rain
6:23 AM 50.0 °F - 48.0 °F 93% 29.92 in 4.0 mi NW 12.7 mph 20.7 mph 0.05 in Rain Rain
6:53 AM 50.0 °F - 48.9 °F 96% 29.91 in 4.0 mi Calm Calm - 0.15 in Rain Rain
7:24 AM 48.9 °F - 48.9 °F 100% 29.96 in 2.5 mi Calm Calm - 0.13 in Rain Heavy Rain
7:53 AM 48.9 °F - 48.0 °F 97% 29.96 in 2.0 mi WNW 4.6 mph - 0.29 in Rain Heavy Rain
8:42 AM 50.0 °F - 48.9 °F 96% 30.03 in 1.0 mi SW 4.6 mph - 0.16 in Rain Heavy Rain
8:53 AM 50.0 °F - 48.9 °F 96% 30.02 in 1.0 mi West 4.6 mph - 0.22 in Rain Rain
9:41 AM 50.0 °F - 48.9 °F 96% 30.01 in 2.0 mi SSE 4.6 mph - 0.04 in Rain Light Rain
9:49 AM 50.0 °F - 48.2 °F 94% 30.01 in 2.0 mi SSE 5.8 mph - 0.04 in Rain Light Rain
9:53 AM 50.0 °F - 48.9 °F 96% 29.97 in 2.0 mi ESE 4.6 mph - 0.04 in Rain Light Rain
10:10 AM 51.1 °F - 50.0 °F 96% 30.01 in 2.0 mi SSE 4.6 mph - 0.00 in   Overcast
10:48 AM 51.8 °F - 50.0 °F 94% 29.99 in 3.0 mi NW 3.5 mph - 0.00 in   Overcast
10:53 AM 52.0 °F - 50.0 °F 93% 29.95 in 3.0 mi Calm Calm - 0.00 in   Overcast
11:53 AM 53.1 °F - 51.1 °F 93% 29.92 in 10.0 mi NNW 4.6 mph - N/A   Overcast
12:53 PM 53.1 °F - 51.1 °F 93% 29.93 in 10.0 mi NW 12.7 mph - N/A   Overcast
1:00 PM 52.0 °F - 50.0 °F 93% 29.96 in 10.0 mi NW 10.4 mph - N/A   Overcast
1:53 PM 52.0 °F - 50.0 °F 93% 29.95 in 10.0 mi WSW 6.9 mph - N/A   Overcast
2:42 PM 52.0 °F - 48.9 °F 89% 29.97 in 9.0 mi SSW 4.6 mph - 0.00 in Rain Light Rain
2:51 PM 51.8 °F - 50.0 °F 94% 29.97 in 7.0 mi South 3.5 mph - 0.01 in Rain Light Rain
2:53 PM 52.0 °F - 50.0 °F 93% 29.94 in 7.0 mi South 3.5 mph - 0.01 in Rain Light Rain
3:53 PM 52.0 °F - 48.9 °F 89% 29.94 in 10.0 mi SW 6.9 mph - 0.01 in Rain Light Rain
4:29 PM 51.1 °F - 48.9 °F 92% 29.98 in 10.0 mi West 6.9 mph - 0.00 in   Overcast
4:53 PM 52.0 °F - 48.9 °F 89% 29.96 in 10.0 mi Variable 4.6 mph - 0.00 in   Overcast
5:53 PM 50.0 °F - 48.0 °F 93% 29.97 in 10.0 mi NW 6.9 mph - 0.00 in   Overcast
6:51 PM 48.2 °F - 46.4 °F 93% 30.05 in 10.0 mi West 9.2 mph - 0.00 in Rain Light Rain
6:53 PM 48.9 °F - 46.9 °F 93% 30.02 in 9.0 mi West 8.1 mph - 0.00 in Rain Light Rain
7:16 PM 48.9 °F - 46.9 °F 93% 30.04 in 10.0 mi WNW 6.9 mph - 0.02 in Rain Light Rain
7:53 PM 48.0 °F - 46.0 °F 93% 29.99 in 10.0 mi WSW 4.6 mph - 0.02 in   Overcast
8:53 PM 46.9 °F - 45.0 °F 93% 30.00 in 10.0 mi North 3.5 mph - 0.02 in   Overcast
9:45 PM 46.9 °F - 45.0 °F 93% 30.05 in 10.0 mi West 5.8 mph - 0.00 in Rain Light Rain
9:53 PM 46.9 °F - 45.0 °F 93% 30.01 in 10.0 mi WNW 5.8 mph - 0.00 in Rain Light Rain
10:03 PM 46.0 °F 43.9 °F 45.0 °F 96% 30.02 in 10.0 mi NNW 4.6 mph - 0.00 in Rain Light Rain
10:53 PM 46.0 °F 43.9 °F 44.1 °F 93% 30.01 in 9.0 mi NW 4.6 mph - 0.01 in Rain Light Rain
11:01 PM 46.0 °F 43.1 °F 44.1 °F 93% 30.04 in 10.0 mi NW 5.8 mph - 0.00 in Rain Light Rain
11:53 PM 45.0 °F - 44.1 °F 97% 29.99 in 10.0 mi Calm Calm - 0.00 in   Overcast